[[{"header":{"parameterUnit":"m.s-1","parameterCategory":1,"la1":30.2992,"la2":30.254,"lo1":-89.0895,"lo2":-89.0443,"dy":0.0025,"dx":0.0025,"nx":19,"ny":19,"refTime":"2026-05-02T03:00:00:Z","depth":0,"parameterNumber":2,"parameterNumberName":"U-component_of_WINDS"},"data":[0,0,0,1.8111,1.8114,1.8302,1.8302,1.8543,1.8545,0,0,0,0,0,0,0,0,0,0,0,1.8052,1.8053,1.811,1.8115,1.8301,1.8302,1.8542,1.8545,0,0,0,0,0,0,0,0,0,0,0,1.8051,1.8053,1.8054,1.8116,1.8301,1.8302,1.8542,1.8401,0,0,0,0,0,0,0,0,0,0,1.822,1.8161,1.8052,1.8055,1.8117,1.8301,1.8302,1.8395,1.841,1.8457,0,1.8494,0,1.8523,1.8561,1.8561,0,0,0,1.8119,1.8148,1.8201,1.8055,1.8118,1.8301,1.8218,1.8403,1.8421,1.8478,1.8498,1.8507,1.8527,1.8562,1.8563,1.8813,1.8814,0,0,1.8108,1.8084,1.8189,1.8212,1.8179,1.8212,1.8224,1.8414,1.8436,1.8499,1.8512,1.8531,1.8564,1.8566,1.8812,1.8813,0,0,0,1.8076,1.8077,1.8126,1.8202,1.8236,1.8218,1.8231,1.8427,1.8445,1.8515,1.8534,1.8565,1.8568,1.8811,1.8812,1.8836,0,0,0,1.807,1.8058,1.8121,1.8108,1.8232,1.8333,1.824,1.8432,1.8454,1.8533,1.8565,1.857,1.881,1.8812,1.8833,1.8852,0,0,0,1.8041,1.8055,1.808,1.8106,1.8185,1.833,1.8359,1.8437,1.8465,1.8562,1.8571,1.8809,1.8811,1.8831,1.8848,1.8911,0,0,0,1.8004,1.81,1.808,1.8195,1.8184,1.8342,1.8358,1.8479,1.8564,1.8566,1.881,1.8812,1.883,1.8845,1.8908,1.8959,1.8978,0,0,1.8112,1.8112,1.8182,1.817,1.8325,1.8316,1.8477,1.858,1.8613,1.8746,1.8752,1.8834,1.8847,1.891,1.9092,1.9106,0,0,0,1.8208,1.8258,1.8305,1.8383,1.8462,1.8532,1.8612,1.8651,1.8764,1.8675,1.8875,1.8884,1.8921,1.8947,1.896,1.8995,1.8823,1.8823,1.8823,1.8327,1.8362,1.8481,1.8539,1.8615,1.8697,1.8764,1.8831,1.8846,1.8893,1.8932,1.9038,1.9067,1.9076,1.9112,1.8962,1.8962,1.8962,1.8962,1.8489,1.8566,1.8582,1.8703,1.8742,1.8846,1.893,1.8937,1.9042,1.901,1.9046,1.9008,1.9091,1.9125,1.8965,1.8964,1.8964,1.8964,1.8964,1.8571,1.8613,1.8657,1.8775,1.8863,1.8921,1.902,1.9052,1.9084,1.9119,1.9165,1.9165,1.9169,1.9138,1.9139,1.9139,1.9139,1.914,1.914,1.8638,1.8686,1.8763,1.8856,1.8911,1.8989,1.9074,1.9131,1.9203,1.922,1.922,1.9232,1.9092,1.9056,1.9146,1.9145,1.9144,1.9144,1.9143,1.8789,1.876,1.8879,1.8934,1.9047,1.9134,1.9174,1.9288,1.934,1.9389,1.9394,1.9285,1.9289,1.9279,1.925,1.9384,1.9384,1.9384,1.9384,1.8858,1.8862,1.8992,1.9079,1.9168,1.9217,1.9356,1.9424,1.9492,1.9527,1.9513,1.9477,1.9466,1.9476,1.9463,1.9436,1.9615,1.9615,1.9615,1.8953,1.8968,1.9077,1.9138,1.923,1.9309,1.9441,1.9544,1.9615,1.9625,1.9556,1.9547,1.9489,1.9468,1.9476,1.9453,1.9405,0,0]},{"header":{"parameterUnit":"m.s-1","parameterCategory":1,"la1":30.2992,"la2":30.254,"lo1":-89.0895,"lo2":-89.0443,"dy":0.0025,"dx":0.0025,"nx":19,"ny":19,"refTime":"2026-05-02T03:00:00:Z","depth":0,"parameterNumber":3,"parameterNumberName":"V-component_of_WINDS"},"data":[0,0,0,0.4653,0.4659,0.496,0.4961,0.5337,0.534,0,0,0,0,0,0,0,0,0,0,0,0.4555,0.4558,0.4652,0.4659,0.496,0.4961,0.5337,0.534,0,0,0,0,0,0,0,0,0,0,0,0.4554,0.4557,0.456,0.466,0.4959,0.4961,0.5336,0.5113,0,0,0,0,0,0,0,0,0,0,0.4822,0.4724,0.4556,0.456,0.4662,0.4959,0.4961,0.5102,0.5127,0.5196,0,0.5254,0,0.5303,0.5365,0.5366,0,0,0,0.4666,0.4704,0.4792,0.456,0.4665,0.4959,0.4826,0.5116,0.5144,0.5229,0.5259,0.5274,0.5309,0.5367,0.5369,0.5744,0.5745,0,0,0.4649,0.4606,0.4772,0.4809,0.4759,0.4816,0.4835,0.5133,0.5164,0.5261,0.5283,0.5315,0.537,0.5372,0.5743,0.5744,0,0,0,0.4597,0.4594,0.4675,0.4793,0.4848,0.4825,0.4847,0.5151,0.5181,0.5287,0.532,0.5372,0.5376,0.5741,0.5743,0.5773,0,0,0,0.4588,0.4564,0.4667,0.4644,0.4842,0.5003,0.4858,0.516,0.5195,0.5318,0.5372,0.538,0.574,0.5742,0.5769,0.5795,0,0,0,0.4539,0.4558,0.4598,0.4641,0.4768,0.4999,0.5046,0.5169,0.5215,0.5366,0.5381,0.5739,0.5742,0.5765,0.5789,0.5883,0,0,0,0.4475,0.462,0.4598,0.4774,0.4765,0.5013,0.5045,0.5232,0.5365,0.5374,0.574,0.5743,0.5764,0.5785,0.5878,0.5955,0.5982,0,0,0.4634,0.4638,0.4745,0.4734,0.4974,0.4971,0.5217,0.5381,0.5436,0.5639,0.5649,0.577,0.5789,0.5882,0.6145,0.6166,0,0,0,0.4781,0.4857,0.493,0.5054,0.5181,0.5294,0.5424,0.5485,0.5659,0.553,0.5829,0.5842,0.5898,0.5937,0.5955,0.6008,0.5758,0.5758,0.5758,0.4946,0.5007,0.5189,0.5287,0.5407,0.554,0.5644,0.575,0.5777,0.5847,0.5908,0.606,0.6103,0.6117,0.6171,0.5951,0.5952,0.5952,0.5952,0.5187,0.5307,0.5339,0.5528,0.5593,0.5753,0.5888,0.5902,0.6062,0.6018,0.6071,0.602,0.6138,0.6189,0.5955,0.5954,0.5954,0.5954,0.5953,0.5304,0.5372,0.5443,0.5629,0.5766,0.5861,0.6014,0.6067,0.6119,0.6171,0.6244,0.6244,0.6252,0.6201,0.6202,0.6202,0.6203,0.6203,0.6204,0.5399,0.5477,0.5598,0.5746,0.5833,0.5955,0.6091,0.618,0.6292,0.6319,0.632,0.6343,0.6137,0.6086,0.6212,0.6211,0.621,0.6209,0.6208,0.5625,0.5583,0.5769,0.5857,0.6036,0.6171,0.6236,0.6412,0.6493,0.6567,0.6578,0.6416,0.6425,0.6411,0.6369,0.6562,0.6562,0.6562,0.6562,0.5726,0.5734,0.5939,0.6076,0.6216,0.6294,0.6507,0.6615,0.6719,0.6774,0.6753,0.6702,0.6685,0.6704,0.6684,0.6646,0.6904,0.6905,0.6905,0.5871,0.5895,0.6065,0.6165,0.6309,0.6433,0.6636,0.6794,0.6904,0.692,0.6819,0.6804,0.6721,0.669,0.6707,0.6674,0.6605,0,0]}]]